Meteo orario Abha

Oggi, 8 Marzo, Lunedi

Tempo Temperatura Precipitazioni Vento Pressione Umidità
00:00 +20°C° 0 mm 0 m/s 644 mm Hg 57%
01:00 +22°C° 0 mm 1 m/s 643 mm Hg 58%
02:00 +21°C° 0 mm 1 m/s 643 mm Hg 58%
03:00 +20°C° 0 mm 2 m/s 642 mm Hg 61%
04:00 +21°C° 0 mm 1 m/s 642 mm Hg 62%
05:00 +20°C° 0 mm 1 m/s 642 mm Hg 63%
06:00 +20°C° 0 mm 1 m/s 642 mm Hg 64%
07:00 +21°C° 0 mm 1 m/s 643 mm Hg 55%
08:00 +23°C° 0 mm 1 m/s 644 mm Hg 46%
09:00 +24°C° 0 mm 1 m/s 645 mm Hg 38%
10:00 +25°C° 0 mm 2 m/s 645 mm Hg 36%
11:00 +26°C° 0 mm 3 m/s 645 mm Hg 35%
12:00 +27°C° 0 mm 3 m/s 645 mm Hg 34%
13:00 +27°C° 0 mm 4 m/s 644 mm Hg 36%
14:00 +27°C° 0 mm 4 m/s 644 mm Hg 38%
15:00 +27°C° 0 mm 4 m/s 643 mm Hg 42%
16:00 +26°C° 0 mm 3 m/s 643 mm Hg 47%
17:00 +25°C° 0 mm 3 m/s 643 mm Hg 51%
18:00 +24°C° 0 mm 2 m/s 642 mm Hg 56%
19:00 +24°C° 0 mm 2 m/s 643 mm Hg 58%
20:00 +24°C° 0 mm 1 m/s 643 mm Hg 59%
21:00 +21°C° 0 mm 0 m/s 643 mm Hg 61%
22:00 +21°C° 0 mm 0 m/s 643 mm Hg 62%
23:00 +23°C° 0 mm 1 m/s 643 mm Hg 63%

Domani, 9 Marzo, Martedi

Tempo Temperatura Precipitazioni Vento Pressione Umidità
00:00 +23°C° 0 mm 1 m/s 644 mm Hg 64%
01:00 +20°C° 0 mm 0 m/s 643 mm Hg 66%
02:00 +20°C° 0 mm 0 m/s 642 mm Hg 68%
03:00 +19°C° 0 mm 0 m/s 642 mm Hg 71%
04:00 +19°C° 0 mm 0 m/s 642 mm Hg 70%
05:00 +18°C° 0 mm 0 m/s 642 mm Hg 70%
06:00 +18°C° 0 mm 0 m/s 643 mm Hg 70%
07:00 +21°C° 0 mm 1 m/s 643 mm Hg 63%
08:00 +22°C° 0 mm 1 m/s 644 mm Hg 57%
09:00 +24°C° 0 mm 1 m/s 645 mm Hg 51%
10:00 +24°C° 0 mm 2 m/s 645 mm Hg 49%
11:00 +25°C° 0 mm 2 m/s 645 mm Hg 47%
12:00 +26°C° 0 mm 3 m/s 645 mm Hg 45%
13:00 +26°C° 0 mm 3 m/s 644 mm Hg 46%
14:00 +26°C° 0 mm 3 m/s 644 mm Hg 48%
15:00 +26°C° 0 mm 4 m/s 643 mm Hg 50%
16:00 +25°C° 0 mm 3 m/s 643 mm Hg 54%
17:00 +25°C° 0 mm 3 m/s 643 mm Hg 58%
18:00 +24°C° 0 mm 2 m/s 643 mm Hg 62%
19:00 +24°C° 0 mm 2 m/s 644 mm Hg 64%
20:00 +23°C° 0 mm 1 m/s 644 mm Hg 65%
21:00 +23°C° 0 mm 1 m/s 644 mm Hg 67%
22:00 +23°C° 0 mm 1 m/s 644 mm Hg 66%
23:00 +21°C° 0 mm 0 m/s 644 mm Hg 65%

Dopodomani, 10 Marzo, Mercoledi

Tempo Temperatura Precipitazioni Vento Pressione Umidità
00:00 +21°C° 0 mm 0 m/s 644 mm Hg 64%
01:00 +20°C° 0 mm 0 m/s 643 mm Hg 65%
02:00 +20°C° 0 mm 0 m/s 643 mm Hg 66%
03:00 +19°C° 0 mm 0 m/s 642 mm Hg 67%
04:00 +19°C° 0 mm 0 m/s 642 mm Hg 65%
05:00 +19°C° 0 mm 0 m/s 643 mm Hg 64%
06:00 +19°C° 0 mm 0 m/s 643 mm Hg 62%
07:00 +22°C° 0 mm 1 m/s 643 mm Hg 56%
08:00 +23°C° 0 mm 1 m/s 644 mm Hg 50%
09:00 +24°C° 0 mm 1 m/s 645 mm Hg 44%
10:00 +25°C° 0 mm 2 m/s 645 mm Hg 42%
11:00 +27°C° 0 mm 2 m/s 645 mm Hg 39%
12:00 +28°C° 0 mm 3 m/s 645 mm Hg 37%
13:00 +28°C° 0 mm 3 m/s 645 mm Hg 38%
14:00 +28°C° 0 mm 4 m/s 644 mm Hg 40%
15:00 +28°C° 0 mm 4 m/s 644 mm Hg 41%
16:00 +27°C° 0 mm 3 m/s 643 mm Hg 46%
17:00 +26°C° 0 mm 3 m/s 643 mm Hg 51%
18:00 +25°C° 0 mm 2 m/s 643 mm Hg 56%
19:00 +24°C° 0 mm 2 m/s 643 mm Hg 59%
20:00 +24°C° 0 mm 1 m/s 644 mm Hg 62%
21:00 +23°C° 0 mm 1 m/s 644 mm Hg 64%
22:00 +23°C° 0 mm 1 m/s 644 mm Hg 64%
23:00 +23°C° 0 mm 1 m/s 644 mm Hg 64%

11 Marzo, Giovedi

Tempo Temperatura Precipitazioni Vento Pressione Umidità
00:00 +23°C° 0 mm 1 m/s 644 mm Hg 64%
01:00 +21°C° 0 mm 0 m/s 643 mm Hg 63%
02:00 +20°C° 0 mm 0 m/s 643 mm Hg 62%
03:00 +20°C° 0 mm 0 m/s 642 mm Hg 61%
04:00 +20°C° 0 mm 0 m/s 642 mm Hg 60%
05:00 +19°C° 0 mm 0 m/s 642 mm Hg 58%
06:00 +19°C° 0 mm 0 m/s 643 mm Hg 56%
07:00 +22°C° 0 mm 1 m/s 643 mm Hg 50%
08:00 +24°C° 0 mm 1 m/s 644 mm Hg 44%
09:00 +25°C° 0 mm 1 m/s 645 mm Hg 38%
10:00 +26°C° 0 mm 2 m/s 645 mm Hg 35%
11:00 +27°C° 0 mm 3 m/s 645 mm Hg 33%
12:00 +28°C° 0 mm 3 m/s 645 mm Hg 31%
13:00 +28°C° 0 mm 3 m/s 645 mm Hg 34%
14:00 +28°C° 0 mm 4 m/s 644 mm Hg 37%
15:00 +28°C° 0 mm 4 m/s 643 mm Hg 40%
16:00 +27°C° 0 mm 3 m/s 643 mm Hg 46%
17:00 +26°C° 0 mm 3 m/s 643 mm Hg 52%
18:00 +25°C° 0 mm 2 m/s 643 mm Hg 58%
19:00 +24°C° 0 mm 2 m/s 643 mm Hg 61%
20:00 +24°C° 0 mm 1 m/s 643 mm Hg 64%
21:00 +24°C° 0 mm 1 m/s 644 mm Hg 66%
22:00 +24°C° 0 mm 1 m/s 644 mm Hg 65%
23:00 +22°C° 0 mm 0 m/s 644 mm Hg 64%

12 Marzo, Venerdi

Tempo Temperatura Precipitazioni Vento Pressione Umidità
00:00 +22°C° 0 mm 0 m/s 644 mm Hg 62%
01:00 +21°C° 0 mm 0 m/s 643 mm Hg 61%
02:00 +21°C° 0 mm 0 m/s 643 mm Hg 60%
03:00 +20°C° 0 mm 0 m/s 643 mm Hg 58%
04:00 +20°C° 0 mm 0 m/s 643 mm Hg 57%
05:00 +19°C° 0 mm 0 m/s 642 mm Hg 56%
06:00 +19°C° 0 mm 0 m/s 642 mm Hg 54%
07:00 +23°C° 0 mm 1 m/s 643 mm Hg 47%
08:00 +24°C° 0 mm 1 m/s 644 mm Hg 40%
09:00 +26°C° 0 mm 2 m/s 645 mm Hg 34%
10:00 +27°C° 0 mm 2 m/s 645 mm Hg 31%
11:00 +28°C° 0 mm 3 m/s 645 mm Hg 28%
12:00 +29°C° 0 mm 4 m/s 645 mm Hg 26%
13:00 +29°C° 0 mm 4 m/s 644 mm Hg 30%
14:00 +28°C° 0 mm 4 m/s 644 mm Hg 33%
15:00 +28°C° 0 mm 4 m/s 643 mm Hg 37%
16:00 +27°C° 0 mm 3 m/s 643 mm Hg 43%
17:00 +26°C° 0 mm 3 m/s 643 mm Hg 48%
18:00 +25°C° 0 mm 3 m/s 642 mm Hg 53%
19:00 +25°C° 0 mm 2 m/s 643 mm Hg 57%
20:00 +24°C° 0 mm 1 m/s 643 mm Hg 60%
21:00 +24°C° 0 mm 1 m/s 643 mm Hg 64%
22:00 +23°C° 0 mm 1 m/s 643 mm Hg 64%
23:00 +21°C° 0 mm 0 m/s 643 mm Hg 64%

13 Marzo, Sabato

Tempo Temperatura Precipitazioni Vento Pressione Umidità
00:00 +21°C° 0 mm 0 m/s 643 mm Hg 64%
01:00 +21°C° 0 mm 0 m/s 643 mm Hg 63%
02:00 +21°C° 0 mm 0 m/s 643 mm Hg 63%
03:00 +20°C° 0 mm 0 m/s 642 mm Hg 62%
04:00 +20°C° 0 mm 0 m/s 643 mm Hg 62%
05:00 +22°C° 0 mm 1 m/s 643 mm Hg 62%
06:00 +22°C° 0 mm 1 m/s 643 mm Hg 62%
07:00 +23°C° 0 mm 1 m/s 644 mm Hg 54%
08:00 +25°C° 0 mm 2 m/s 645 mm Hg 45%
09:00 +26°C° 0 mm 2 m/s 646 mm Hg 37%
10:00 +27°C° 0 mm 3 m/s 646 mm Hg 36%
11:00 +28°C° 0 mm 3 m/s 646 mm Hg 34%
12:00 +29°C° 0 mm 3 m/s 646 mm Hg 33%
13:00 +29°C° 0 mm 3 m/s 645 mm Hg 36%
14:00 +29°C° 0 mm 3 m/s 644 mm Hg 38%
15:00 +29°C° 0 mm 3 m/s 644 mm Hg 40%
16:00 +28°C° 0 mm 3 m/s 644 mm Hg 45%
17:00 +27°C° 0 mm 3 m/s 643 mm Hg 50%
18:00 +26°C° 0 mm 2 m/s 643 mm Hg 54%
19:00 +25°C° 0 mm 2 m/s 643 mm Hg 53%
20:00 +25°C° 0 mm 2 m/s 644 mm Hg 52%
21:00 +25°C° 0 mm 2 m/s 644 mm Hg 51%
22:00 +24°C° 0 mm 2 m/s 644 mm Hg 50%
23:00 +24°C° 0 mm 2 m/s 644 mm Hg 49%
Mostrare altro

Abbiamo bisogno del tuo consenso

Meteoprog e i nostri fornitori di servizi possono memorizzare e accedere a dati personali come cookie, identificatori di dispositivi o altre tecnologie simili sul tuo dispositivo e possono elaborare tali dati per personalizzare i contenuti e gli annunci, nonché fornire funzionalità dei social media e analizzarne il traffico.

  • Archiviare e/o accedere alle informazioni sul tuo dispositivo

    Cookie, identificatori di dispositivi o altre informazioni possono essere memorizzati o resi accessibili sul tuo dispositivo per le finalità sopra indicate.

  • Annunci e contenuti personalizzati, misurazione di annunci e contenuti, approfondimenti sul pubblico e sviluppo di prodotti

    Gli annunci e i contenuti possono essere personalizzati in base a un profilo. È possibile aggiungere più dati per personalizzare meglio annunci e contenuti. È possibile misurare il rendimento degli annunci e dei contenuti. È possibile ricavare informazioni sul pubblico che ha visto gli annunci e i contenuti. Tali dati possono essere utilizzati per sviluppare o migliorare l'esperienza, i sistemi e il software dell'utente.

Cliccando su “Accetto”, acconsenti all'uso di cookie, identificatori di dispositivo, web beacon o altre tecnologie simili. Puoi modificare le impostazioni nel browser del tuo dispositivo.

Per determinati scopi, è possibile fare affidamento su interessi legali, piuttosto che sul consenso. Puoi approfondire questo argomento consultando la nostra Informativa sulla privacy e sui cookie.